Torna al catalogo

FENGYUN 1C DEB

AttivoPO
NORAD 31341·DEBRIS·🇨🇳 China

Lanciato May 10, 1999 da Taiyuan Satellite Launch Center

Loading…

Prossimi Passaggi (prossime 24 ore)

TLE

AggiornatoSource: Space-Track

Epoca: Sep 14, 2026, 11:56 UTC

1 31341U 99025BQV 26257.49731728  .00003255  00000-0  74176-3 0  9993
2 31341  99.5346 342.4211 0051025 245.9100 125.6568 14.55913052 16286

Traccia FENGYUN 1C DEB in tempo reale con AllMySat

Download on the App Store